Вернуться в каталог

FENGYUN 1C DEB

LostSSO
NORAD 32312·DEBRIS·🇨🇳 China

Запущен May 10, 1999 с Taiyuan Satellite Launch Center

Loading…

Ближайшие Пролёты (ближайшие 24 часа)

TLE

УстаревшееSource: Space-Track

Эпоха: Sep 1, 2022, 10:44 UTC

1 32312U 99025CXD 22244.44790778  .00000606  00000-0  47583-3 0  9998
2 32312  98.7753 312.8018 0134973  36.3138  28.8966 13.91355058780965

Отслеживайте FENGYUN 1C DEB в реальном времени с AllMySat

Download on the App Store